Location: Chaumontel
(49.1247°N, 2.4324°E)
Time: 12:49:21
(UTC+00:00)

COSMOS 2428 - Pass Details

Date: 11 August 2024
Orbit: 842 x 857 km, 70.9° (Epoch: 14 September)

Event Time Altitude Azimuth Distance (km) Brightness Sun altitude
Exits shadow 01:59:34 38° 197° (SSW) 1,274 3.1 -20.1°
Maximum altitude 02:01:51 80° 116° (ESE) 866 2.7 -19.9°
Drops below altitude 10° 02:07:35 10° 30° (NNE) 2,489 6.4 -19.4°
Sets 02:10:03 0° 30° (NNE) 3,431 7.5 -19.2°
